Hourly Weather Barr

Today, 18 April, Sunday

Time Temperature Precipitation Wind Pressure Humidity
00:00 +5°C° 0 mm 1 mps 737 mmHg 91%
01:00 +5°C° 0 mm 1 mps 737 mmHg 91%
02:00 +5°C° 0 mm 1 mps 737 mmHg 91%
03:00 +5°C° 0 mm 1 mps 737 mmHg 91%
04:00 +5°C° 0 mm 1 mps 737 mmHg 90%
05:00 +5°C° 0 mm 1 mps 737 mmHg 90%
06:00 +5°C° 0 mm 1 mps 737 mmHg 89%
07:00 +6°C° 0 mm 1 mps 737 mmHg 88%
08:00 +6°C° 0 mm 1 mps 737 mmHg 86%
09:00 +6°C° 0 mm 1 mps 737 mmHg 85%
10:00 +7°C° 0 mm 1 mps 737 mmHg 81%
11:00 +8°C° 0 mm 1 mps 737 mmHg 78%
12:00 +8°C° 0 mm 1 mps 737 mmHg 75%
13:00 +8°C° 0 mm 1 mps 737 mmHg 74%
14:00 +9°C° 0 mm 1 mps 737 mmHg 73%
15:00 +9°C° 0 mm 1 mps 737 mmHg 73%
16:00 +8°C° 0.1 mm 1 mps 737 mmHg 78%
17:00 +8°C° 0.1 mm 1 mps 737 mmHg 82%
18:00 +7°C° 0.1 mm 1 mps 737 mmHg 87%
19:00 +7°C° 0 mm 1 mps 737 mmHg 89%
20:00 +6°C° 0 mm 1 mps 738 mmHg 90%
21:00 +6°C° 0 mm 1 mps 738 mmHg 91%
22:00 +6°C° 0 mm 1 mps 738 mmHg 91%
23:00 +5°C° 0 mm 0 mps 737 mmHg 90%

Tomorrow, 19 April, Monday

Time Temperature Precipitation Wind Pressure Humidity
00:00 +5°C° 0 mm 0 mps 737 mmHg 90%
01:00 +4°C° 0 mm 0 mps 737 mmHg 90%
02:00 +3°C° 0 mm 0 mps 737 mmHg 91%
03:00 +4°C° 0 mm 1 mps 737 mmHg 91%
04:00 +3°C° 0 mm 0 mps 737 mmHg 90%
05:00 +4°C° 0 mm 0 mps 737 mmHg 88%
06:00 +5°C° 0 mm 0 mps 737 mmHg 86%
07:00 +6°C° 0 mm 0 mps 737 mmHg 80%
08:00 +8°C° 0 mm 1 mps 737 mmHg 75%
09:00 +10°C° 0 mm 1 mps 737 mmHg 70%
10:00 +10°C° 0 mm 1 mps 737 mmHg 68%
11:00 +11°C° 0 mm 1 mps 736 mmHg 66%
12:00 +12°C° 0 mm 2 mps 736 mmHg 64%
13:00 +12°C° 0.1 mm 1 mps 736 mmHg 62%
14:00 +13°C° 0.1 mm 1 mps 736 mmHg 61%
15:00 +13°C° 0.1 mm 1 mps 735 mmHg 60%
16:00 +12°C° 0.2 mm 1 mps 735 mmHg 67%
17:00 +11°C° 0.2 mm 1 mps 735 mmHg 73%
18:00 +10°C° 0.2 mm 1 mps 735 mmHg 80%
19:00 +9°C° 0 mm 1 mps 735 mmHg 83%
20:00 +9°C° 0 mm 1 mps 735 mmHg 85%
21:00 +8°C° 0 mm 1 mps 736 mmHg 88%
22:00 +7°C° 0 mm 1 mps 735 mmHg 89%
23:00 +7°C° 0 mm 1 mps 735 mmHg 90%

Day after tomorrow, 20 April, Tuesday

Time Temperature Precipitation Wind Pressure Humidity
00:00 +6°C° 0 mm 0 mps 735 mmHg 90%
01:00 +5°C° 0 mm 0 mps 735 mmHg 90%
02:00 +5°C° 0 mm 0 mps 735 mmHg 90%
03:00 +5°C° 0 mm 0 mps 735 mmHg 90%
04:00 +6°C° 0 mm 0 mps 735 mmHg 89%
05:00 +6°C° 0 mm 0 mps 735 mmHg 89%
06:00 +6°C° 0 mm 0 mps 735 mmHg 88%
07:00 +9°C° 0 mm 1 mps 735 mmHg 80%
08:00 +10°C° 0 mm 1 mps 735 mmHg 73%
09:00 +12°C° 0 mm 1 mps 735 mmHg 66%
10:00 +13°C° 0 mm 1 mps 735 mmHg 61%
11:00 +14°C° 0 mm 2 mps 735 mmHg 56%
12:00 +14°C° 0 mm 2 mps 734 mmHg 52%
13:00 +15°C° 0.1 mm 2 mps 734 mmHg 52%
14:00 +15°C° 0.1 mm 2 mps 734 mmHg 52%
15:00 +15°C° 0.1 mm 2 mps 734 mmHg 52%
16:00 +13°C° 0 mm 2 mps 734 mmHg 58%
17:00 +12°C° 0 mm 1 mps 734 mmHg 65%
18:00 +11°C° 0 mm 1 mps 734 mmHg 72%
19:00 +10°C° 0 mm 1 mps 734 mmHg 74%
20:00 +9°C° 0 mm 1 mps 735 mmHg 77%
21:00 +8°C° 0 mm 1 mps 735 mmHg 80%
22:00 +7°C° 0 mm 1 mps 735 mmHg 81%
23:00 +7°C° 0 mm 1 mps 735 mmHg 82%

21 April, Wednesday

Time Temperature Precipitation Wind Pressure Humidity
00:00 +7°C° 0 mm 1 mps 735 mmHg 83%
01:00 +6°C° 0 mm 1 mps 735 mmHg 83%
02:00 +5°C° 0 mm 0 mps 735 mmHg 84%
03:00 +5°C° 0 mm 0 mps 735 mmHg 85%
04:00 +6°C° 0 mm 0 mps 735 mmHg 83%
05:00 +6°C° 0 mm 0 mps 735 mmHg 80%
06:00 +7°C° 0 mm 0 mps 736 mmHg 78%
07:00 +9°C° 0 mm 0 mps 736 mmHg 71%
08:00 +12°C° 0 mm 1 mps 736 mmHg 65%
09:00 +14°C° 0 mm 1 mps 736 mmHg 58%
10:00 +15°C° 0.1 mm 1 mps 736 mmHg 55%
11:00 +16°C° 0.1 mm 1 mps 736 mmHg 51%
12:00 +16°C° 0.1 mm 1 mps 735 mmHg 48%
13:00 +16°C° 0.2 mm 1 mps 735 mmHg 50%
14:00 +16°C° 0.2 mm 2 mps 735 mmHg 52%
15:00 +16°C° 0.2 mm 2 mps 735 mmHg 53%
16:00 +15°C° 0.4 mm 2 mps 735 mmHg 62%
17:00 +13°C° 0.4 mm 2 mps 735 mmHg 71%
18:00 +12°C° 0.4 mm 2 mps 735 mmHg 80%
19:00 +11°C° 0.2 mm 1 mps 736 mmHg 83%
20:00 +10°C° 0.2 mm 1 mps 736 mmHg 85%
21:00 +9°C° 0.2 mm 1 mps 737 mmHg 87%
22:00 +9°C° 0 mm 1 mps 737 mmHg 88%
23:00 +8°C° 0 mm 1 mps 737 mmHg 88%

22 April, Thursday

Time Temperature Precipitation Wind Pressure Humidity
00:00 +8°C° 0 mm 1 mps 737 mmHg 88%
01:00 +8°C° 0 mm 1 mps 737 mmHg 89%
02:00 +7°C° 0 mm 1 mps 738 mmHg 89%
03:00 +7°C° 0 mm 1 mps 738 mmHg 89%
04:00 +8°C° 0 mm 1 mps 738 mmHg 89%
05:00 +7°C° 0 mm 2 mps 738 mmHg 88%
06:00 +7°C° 0 mm 2 mps 739 mmHg 88%
07:00 +8°C° 0 mm 2 mps 739 mmHg 82%
08:00 +9°C° 0 mm 2 mps 739 mmHg 76%
09:00 +10°C° 0 mm 2 mps 739 mmHg 70%
10:00 +11°C° 0 mm 3 mps 739 mmHg 64%
11:00 +12°C° 0 mm 3 mps 739 mmHg 58%
12:00 +14°C° 0 mm 3 mps 739 mmHg 52%
13:00 +14°C° 0 mm 3 mps 739 mmHg 49%
14:00 +14°C° 0 mm 3 mps 739 mmHg 46%
15:00 +14°C° 0 mm 3 mps 738 mmHg 43%
16:00 +12°C° 0 mm 3 mps 739 mmHg 49%
17:00 +11°C° 0 mm 3 mps 739 mmHg 55%
18:00 +9°C° 0 mm 2 mps 739 mmHg 61%
19:00 +8°C° 0 mm 2 mps 739 mmHg 62%
20:00 +6°C° 0 mm 2 mps 740 mmHg 64%
21:00 +5°C° 0 mm 2 mps 740 mmHg 66%
22:00 +5°C° 0 mm 2 mps 740 mmHg 67%
23:00 +5°C° 0 mm 1 mps 740 mmHg 68%

23 April, Friday

Time Temperature Precipitation Wind Pressure Humidity
00:00 +4°C° 0 mm 1 mps 740 mmHg 69%
01:00 +4°C° 0 mm 1 mps 740 mmHg 71%
02:00 +3°C° 0 mm 2 mps 740 mmHg 73%
03:00 +2°C° 0 mm 2 mps 740 mmHg 75%
04:00 +3°C° 0 mm 2 mps 740 mmHg 73%
05:00 +3°C° 0 mm 2 mps 740 mmHg 71%
06:00 +4°C° 0 mm 2 mps 740 mmHg 69%
07:00 +5°C° 0 mm 3 mps 740 mmHg 62%
08:00 +8°C° 0 mm 3 mps 740 mmHg 55%
09:00 +10°C° 0 mm 4 mps 740 mmHg 49%
10:00 +11°C° 0 mm 4 mps 740 mmHg 46%
11:00 +13°C° 0 mm 4 mps 740 mmHg 43%
12:00 +14°C° 0 mm 5 mps 740 mmHg 40%
13:00 +14°C° 0 mm 5 mps 739 mmHg 41%
14:00 +14°C° 0 mm 5 mps 739 mmHg 41%
15:00 +14°C° 0 mm 5 mps 739 mmHg 41%
16:00 +13°C° 0 mm 5 mps 739 mmHg 48%
17:00 +10°C° 0 mm 5 mps 739 mmHg 54%
18:00 +10°C° 0 mm 4 mps 739 mmHg 60%
19:00 +8°C° 0 mm 4 mps 739 mmHg 63%
20:00 +8°C° 0 mm 3 mps 740 mmHg 67%
21:00 +5°C° 0 mm 3 mps 740 mmHg 70%
22:00 +5°C° 0 mm 3 mps 740 mmHg 72%
23:00 +4°C° 0 mm 3 mps 739 mmHg 75%
Show more